GIA342 WARR-WADD

Flight info

Callsign GIA342
Flight time 0h 36m
Altitude 25000
Route MOVMO
Aircraft B38M/M-SDE1FGHILORVWXY/HB1

Departure

Time 2026-05-06 07:35
Airport Juanda International Airport (WARR)

Arrival

Time 2026-05-06 08:11
Airport Denpasar I Gusti Ngurah Rai International Airport (WADD)
Time Latitude Longitude Altitude Speed Heading
2026-05-06 07:07 -7.37604 112.79531 20 ft 0 kts
2026-05-06 07:25 -7.37609 112.79531 21 ft 4 kts
2026-05-06 07:25 -7.37636 112.79526 20 ft 4 kts
2026-05-06 07:26 -7.37662 112.79524 21 ft 4 kts 351°
2026-05-06 07:26 -7.37686 112.79534 23 ft 4 kts 313°
2026-05-06 07:26 -7.37694 112.79548 21 ft 0 kts 279°
2026-05-06 07:29 -7.37692 112.79540 22 ft 3 kts 279°
2026-05-06 07:30 -7.37684 112.79489 19 ft 12 kts 279°
2026-05-06 07:30 -7.37665 112.79374 18 ft 22 kts 279°
2026-05-06 07:30 -7.37640 112.79213 18 ft 27 kts 279°
2026-05-06 07:30 -7.37611 112.79030 17 ft 22 kts 278°
2026-05-06 07:31 -7.37612 112.78922 18 ft 14 kts 229°
2026-05-06 07:31 -7.37704 112.78896 19 ft 14 kts 188°
2026-05-06 07:31 -7.37800 112.78873 22 ft 14 kts 212°
2026-05-06 07:31 -7.37821 112.78775 20 ft 17 kts 279°
2026-05-06 07:32 -7.37800 112.78640 19 ft 21 kts 279°
2026-05-06 07:32 -7.37775 112.78483 24 ft 24 kts 279°
2026-05-06 07:32 -7.37746 112.78307 25 ft 28 kts 279°
2026-05-06 07:32 -7.37713 112.78112 23 ft 28 kts 279°
2026-05-06 07:33 -7.37678 112.77908 24 ft 31 kts 279°
2026-05-06 07:33 -7.37645 112.77685 24 ft 33 kts 280°
2026-05-06 07:33 -7.37612 112.77480 19 ft 26 kts 279°
2026-05-06 07:33 -7.37669 112.77381 19 ft 19 kts 190°
2026-05-06 07:34 -7.37772 112.77403 25 ft 14 kts 113°
2026-05-06 07:34 -7.37799 112.77547 22 ft 38 kts 99°
2026-05-06 07:34 -7.37886 112.78084 21 ft 115 kts 99°
2026-05-06 07:34 -7.38050 112.79100 107 ft 171 kts 101°
2026-05-06 07:35 -7.38246 112.80310 924 ft 180 kts 98°
2026-05-06 07:35 -7.38461 112.81543 2030 ft 171 kts 101°
2026-05-06 07:35 -7.38700 112.82796 2658 ft 193 kts 102°
2026-05-06 07:35 -7.38943 112.84161 3349 ft 202 kts 100°
2026-05-06 07:36 -7.39191 112.85617 3993 ft 217 kts 100°
2026-05-06 07:36 -7.39425 112.87148 4778 ft 228 kts 99°
2026-05-06 07:36 -7.39661 112.88743 5636 ft 233 kts 100°
2026-05-06 07:36 -7.39923 112.90361 6516 ft 238 kts 100°
2026-05-06 07:37 -7.40198 112.92057 7199 ft 250 kts 100°
2026-05-06 07:37 -7.40533 112.93795 8028 ft 255 kts 103°
2026-05-06 07:37 -7.40916 112.95560 8867 ft 259 kts 103°
2026-05-06 07:37 -7.41327 112.97370 9606 ft 270 kts 104°
2026-05-06 07:38 -7.41743 112.99241 10312 ft 279 kts 103°
2026-05-06 07:38 -7.42157 113.01205 10807 ft 295 kts 103°
2026-05-06 07:38 -7.42602 113.03295 11216 ft 313 kts 103°
2026-05-06 07:38 -7.43072 113.05484 11733 ft 326 kts 103°
2026-05-06 07:39 -7.43558 113.07738 12451 ft 330 kts 104°
2026-05-06 07:39 -7.44049 113.10012 13208 ft 335 kts 104°
2026-05-06 07:39 -7.44544 113.12305 13896 ft 340 kts 104°
2026-05-06 07:39 -7.45052 113.14655 14546 ft 344 kts 104°
2026-05-06 07:40 -7.45563 113.17023 15201 ft 348 kts 104°
2026-05-06 07:40 -7.46082 113.19425 15845 ft 352 kts 104°
2026-05-06 07:40 -7.46606 113.21853 16461 ft 357 kts 104°
2026-05-06 07:40 -7.47136 113.24310 17085 ft 361 kts 104°
2026-05-06 07:41 -7.47672 113.26798 17698 ft 365 kts 104°
2026-05-06 07:41 -7.48215 113.29315 18243 ft 370 kts 103°
2026-05-06 07:41 -7.48762 113.31855 18753 ft 373 kts 103°
2026-05-06 07:41 -7.49313 113.34412 19257 ft 376 kts 103°
2026-05-06 07:42 -7.49870 113.36998 19767 ft 379 kts 103°
2026-05-06 07:42 -7.50433 113.39606 20255 ft 382 kts 104°
2026-05-06 07:42 -7.51376 113.42099 20757 ft 382 kts 122°
2026-05-06 07:42 -7.53019 113.44204 21194 ft 385 kts 136°
2026-05-06 07:43 -7.54943 113.46100 21637 ft 389 kts 137°
2026-05-06 07:43 -7.56910 113.47987 22097 ft 391 kts 138°
2026-05-06 07:43 -7.58910 113.49866 22551 ft 395 kts 139°
2026-05-06 07:43 -7.60939 113.51750 22995 ft 398 kts 139°
2026-05-06 07:44 -7.62990 113.53640 23440 ft 400 kts 139°
2026-05-06 07:44 -7.65057 113.55536 23794 ft 403 kts 139°
2026-05-06 07:44 -7.67135 113.57441 24167 ft 405 kts 139°
2026-05-06 07:44 -7.69232 113.59362 24549 ft 408 kts 139°
2026-05-06 07:45 -7.71341 113.61294 24808 ft 413 kts 139°
2026-05-06 07:45 -7.73483 113.63256 24833 ft 418 kts 139°
2026-05-06 07:45 -7.75637 113.65230 24837 ft 419 kts 139°
2026-05-06 07:45 -7.77796 113.67209 24846 ft 420 kts 139°
2026-05-06 07:46 -7.79956 113.69190 24843 ft 420 kts 139°
2026-05-06 07:46 -7.82116 113.71172 24852 ft 420 kts 139°
2026-05-06 07:46 -7.84277 113.73153 24847 ft 420 kts 139°
2026-05-06 07:46 -7.86440 113.75137 24854 ft 420 kts 139°
2026-05-06 07:47 -7.88604 113.77123 24853 ft 420 kts 139°
2026-05-06 07:47 -7.90763 113.79104 24855 ft 420 kts 139°
2026-05-06 07:47 -7.92936 113.81099 24858 ft 420 kts 139°
2026-05-06 07:47 -7.95074 113.83061 24858 ft 421 kts 139°
2026-05-06 07:48 -7.97242 113.85051 24856 ft 421 kts 139°
2026-05-06 07:48 -7.99406 113.87037 24858 ft 420 kts 140°
2026-05-06 07:48 -8.01789 113.88712 24847 ft 416 kts 156°
2026-05-06 07:48 -8.04523 113.89611 24861 ft 413 kts 172°
2026-05-06 07:49 -8.07365 113.90059 24861 ft 414 kts 173°
2026-05-06 07:49 -8.10220 113.90484 24860 ft 415 kts 174°
2026-05-06 07:49 -8.13082 113.90877 24860 ft 415 kts 174°
2026-05-06 07:49 -8.15941 113.91253 24857 ft 415 kts 174°
2026-05-06 07:50 -8.18808 113.91618 24857 ft 415 kts 175°
2026-05-06 07:50 -8.21672 113.91977 24857 ft 415 kts 175°
2026-05-06 07:50 -8.24536 113.92333 24858 ft 415 kts 175°
2026-05-06 07:50 -8.27361 113.92684 24885 ft 401 kts 175°
2026-05-06 07:51 -8.30045 113.93019 24863 ft 386 kts 175°
2026-05-06 07:51 -8.32686 113.93347 24726 ft 375 kts 175°
2026-05-06 07:51 -8.35258 113.93666 24402 ft 372 kts 175°
2026-05-06 07:51 -8.37831 113.93986 23996 ft 373 kts 175°
2026-05-06 07:52 -8.39538 113.94198 23720 ft 373 kts 175°
2026-05-06 07:52 -8.42119 113.94519 23267 ft 374 kts 175°
2026-05-06 07:52 -8.44699 113.94840 22788 ft 373 kts 175°
2026-05-06 07:52 -8.47263 113.95159 22348 ft 370 kts 175°
2026-05-06 07:53 -8.49813 113.95477 21925 ft 367 kts 175°
2026-05-06 07:53 -8.52336 113.95790 21499 ft 364 kts 175°
2026-05-06 07:53 -8.54840 113.96102 21109 ft 361 kts 175°
2026-05-06 07:53 -8.57310 113.96526 20643 ft 362 kts 165°
2026-05-06 07:54 -8.59554 113.97672 20212 ft 364 kts 144°
2026-05-06 07:54 -8.61261 113.99535 19835 ft 363 kts 124°
2026-05-06 07:54 -8.62304 114.01843 19456 ft 362 kts 111°
2026-05-06 07:54 -8.63133 114.04240 19047 ft 360 kts 111°
2026-05-06 07:55 -8.64224 114.07442 18479 ft 359 kts 110°
2026-05-06 07:55 -8.64756 114.09021 18199 ft 359 kts 111°
2026-05-06 07:55 -8.65556 114.11405 17747 ft 357 kts 110°
2026-05-06 07:55 -8.66351 114.13779 17249 ft 357 kts 111°
2026-05-06 07:56 -8.67143 114.16144 16856 ft 353 kts 110°
2026-05-06 07:56 -8.67927 114.18484 16467 ft 350 kts 110°
2026-05-06 07:56 -8.68703 114.20799 16074 ft 347 kts 111°
2026-05-06 07:56 -8.69472 114.23097 15681 ft 344 kts 111°
2026-05-06 07:57 -8.70237 114.25381 15274 ft 341 kts 111°
2026-05-06 07:57 -8.70995 114.27646 14875 ft 339 kts 111°
2026-05-06 07:57 -8.71747 114.29896 14475 ft 337 kts 111°
2026-05-06 07:57 -8.72496 114.32133 14080 ft 335 kts 111°
2026-05-06 07:58 -8.73239 114.34356 13684 ft 333 kts 111°
2026-05-06 07:58 -8.73977 114.36563 13248 ft 331 kts 111°
2026-05-06 07:58 -8.74709 114.38755 12824 ft 325 kts 111°
2026-05-06 07:58 -8.75416 114.40871 12465 ft 311 kts 111°
2026-05-06 07:59 -8.76094 114.42898 12117 ft 301 kts 110°
2026-05-06 07:59 -8.76761 114.44896 11814 ft 299 kts 110°
2026-05-06 07:59 -8.77429 114.46895 11488 ft 301 kts 110°
2026-05-06 07:59 -8.78097 114.48897 11139 ft 300 kts 109°
2026-05-06 08:00 -8.78762 114.50888 10791 ft 299 kts 109°
2026-05-06 08:00 -8.79425 114.52874 10431 ft 297 kts 109°
2026-05-06 08:00 -8.80073 114.54818 10238 ft 287 kts 109°
2026-05-06 08:00 -8.80700 114.56698 10055 ft 279 kts 109°
2026-05-06 08:01 -8.81318 114.58547 9708 ft 277 kts 109°
2026-05-06 08:01 -8.81932 114.60390 9334 ft 275 kts 108°
2026-05-06 08:01 -8.82534 114.62195 8971 ft 273 kts 108°
2026-05-06 08:01 -8.83146 114.64029 8625 ft 270 kts 108°
2026-05-06 08:02 -8.83737 114.65799 8292 ft 268 kts 108°
2026-05-06 08:02 -8.84295 114.67589 7932 ft 266 kts 101°
2026-05-06 08:02 -8.84241 114.69430 7528 ft 264 kts 74°
2026-05-06 08:02 -8.83597 114.71156 7249 ft 260 kts 69°
2026-05-06 08:03 -8.82924 114.72845 6941 ft 258 kts 68°
2026-05-06 08:03 -8.82249 114.74520 6625 ft 256 kts 68°
2026-05-06 08:03 -8.81576 114.76178 6312 ft 255 kts 68°
2026-05-06 08:03 -8.80902 114.77830 5977 ft 254 kts 68°
2026-05-06 08:04 -8.80231 114.79471 5684 ft 251 kts 68°
2026-05-06 08:04 -8.79563 114.81104 5446 ft 253 kts 68°
2026-05-06 08:04 -8.78885 114.82757 5168 ft 255 kts 68°
2026-05-06 08:04 -8.78208 114.84413 4876 ft 255 kts 69°
2026-05-06 08:05 -8.77528 114.86074 4569 ft 255 kts 69°
2026-05-06 08:05 -8.76852 114.87728 4213 ft 255 kts 69°
2026-05-06 08:05 -8.76178 114.89370 4011 ft 248 kts 70°
2026-05-06 08:05 -8.75596 114.90974 3847 ft 238 kts 82°
2026-05-06 08:06 -8.75575 114.92612 3679 ft 230 kts 94°
2026-05-06 08:06 -8.75648 114.94192 3562 ft 220 kts 91°
2026-05-06 08:06 -8.75644 114.95698 3463 ft 210 kts 90°
2026-05-06 08:06 -8.75605 114.97149 3271 ft 204 kts 89°
2026-05-06 08:07 -8.75555 114.98562 3062 ft 199 kts 90°
2026-05-06 08:07 -8.75501 114.99946 2834 ft 194 kts 89°
2026-05-06 08:07 -8.75450 115.01280 2622 ft 186 kts 90°
2026-05-06 08:07 -8.75400 115.02559 2403 ft 178 kts 90°
2026-05-06 08:08 -8.75350 115.03764 2190 ft 163 kts 91°
2026-05-06 08:08 -8.75308 115.04861 2016 ft 154 kts 92°
2026-05-06 08:08 -8.75267 115.05946 1808 ft 154 kts 91°
2026-05-06 08:08 -8.75223 115.07033 1593 ft 155 kts 91°
2026-05-06 08:09 -8.75180 115.08123 1400 ft 155 kts 92°
2026-05-06 08:09 -8.75137 115.09206 1194 ft 153 kts 93°
2026-05-06 08:09 -8.75098 115.10284 1001 ft 153 kts 91°
2026-05-06 08:09 -8.75055 115.11336 813 ft 147 kts 91°
2026-05-06 08:10 -8.75015 115.12352 638 ft 142 kts 90°
2026-05-06 08:10 -8.74975 115.13339 433 ft 141 kts 90°
2026-05-06 08:10 -8.74938 115.14341 246 ft 143 kts 91°
2026-05-06 08:10 -8.74899 115.15348 68 ft 144 kts 91°
2026-05-06 08:11 -8.74872 115.16159 31 ft 114 kts 88°
2026-05-06 08:11 -8.74837 115.16681 30 ft 50 kts 78°
2026-05-06 08:11 -8.74731 115.16857 33 ft 18 kts 10°
2026-05-06 08:11 -8.74679 115.16790 34 ft 14 kts 272°
2026-05-06 08:12 -8.74681 115.16684 35 ft 16 kts 268°
2026-05-06 08:12 -8.74686 115.16566 35 ft 16 kts 267°
2026-05-06 08:12 -8.74690 115.16465 35 ft 9 kts 267°
2026-05-06 08:12 -8.74691 115.16435 35 ft 3 kts 267°
2026-05-06 08:13 -8.74693 115.16402 35 ft 6 kts 267°
2026-05-06 08:13 -8.74685 115.16349 35 ft 9 kts 318°
2026-05-06 08:13 -8.74618 115.16343 36 ft 9 kts 359°
2026-05-06 08:13 -8.74583 115.16341 36 ft 3 kts 357°
2026-05-06 08:14 -8.74569 115.16340 36 ft 1 kts 358°
2026-05-06 08:14 -8.74567 115.16340 36 ft 0 kts 358°